Weather History for KCNU - March, 2013

Change the Weather History Date:

Thursday, March 7, 2013

  Actual Average Record
Temperature  
Mean Temperature 46 °F 44 °F  
Max Temperature 63 °F 55 °F 81 °F (1925)
Min Temperature 28 °F 33 °F -3 °F (1943)
Degree Days  
Heating Degree Days 19 21  
Month to date heating degree days 193 154  
Since 1 July heating degree days 3285 3726  
Cooling Degree Days 0 0  
Month to date cooling degree days 0 0  
Year to date cooling degree days 1 0  
Moisture  
Dew Point 27 °F    
Average Humidity 55    
Maximum Humidity 85    
Minimum Humidity 25    
Precipitation  
Precipitation 0.00 in 0.10 in 1.30 in (1903)
Month to date precipitation 0.01 0.65  
Year to date precipitation 5.47 3.81  
Sea Level Pressure  
Sea Level Pressure 30.18 in    
Wind  
Wind Speed 12 mph (SE)    
Max Wind Speed 23 mph    
Max Gust Speed 30 mph    
Visibility 10 miles    
Events      
T = Trace of Precipitation, MM = Missing Value Source: NWS Daily Summary

Daily Weather History Graph

Daily Weather History Graph

Search for Another Location

Airport or City:

Trip Planner

Search our weather history database for the weather conditions in past years. The results will help you decide how hot, cold, wet, or windy it might be!

Date:

Astronomy

Mar. 07, 2013 Rise Set
Actual Time 6:44 AM CST 6:21 PM CST
Civil Twilight 6:18 AM CST 6:48 PM CST
Nautical Twilight 5:47 AM CST 7:18 PM CST
Astronomical Twilight 5:17 AM CST 7:48 PM CST
Moon 3:40 AM CST (3/7) 2:14 PM CST (3/7)
Length of Visible Light 12h 29m
Length of Day
11h 37m
Waning Crescent, 20% of the Moon is Illuminated
Mar 7
Waning Crescent
Mar 11
New
Mar 19
First Quarter
Mar 27
Full
Apr 2
Last Quarter

Hourly Weather History & Observations

Time (CST) Temp. Windchill Dew Point Humidity Pressure Visibility Wind Dir Wind Speed Gust Speed Precip Events Conditions
12:52 AM 30.0 °F 21.7 °F 24.1 °F 79% 30.27 in 10.0 mi East 9.2 mph - N/A   Clear
1:52 AM 28.9 °F 21.1 °F 24.1 °F 82% 30.27 in 10.0 mi ESE 8.1 mph - N/A   Clear
2:52 AM 28.0 °F 20.8 °F 23.0 °F 81% 30.26 in 10.0 mi East 6.9 mph - N/A   Clear
3:52 AM 28.0 °F 19.3 °F 23.0 °F 81% 30.24 in 10.0 mi East 9.2 mph - N/A   Clear
4:52 AM 28.0 °F 20.0 °F 23.0 °F 81% 30.24 in 10.0 mi ESE 8.1 mph - N/A   Clear
5:52 AM 28.9 °F 19.8 °F 23.0 °F 78% 30.23 in 10.0 mi East 10.4 mph - N/A   Clear
6:52 AM 28.4 °F 19.1 °F 24.8 °F 86% 30.21 in 10.0 mi ESE 10.4 mph - N/A   Clear
7:52 AM 33.1 °F 24.9 °F 26.1 °F 75% 30.24 in 10.0 mi ESE 10.4 mph - N/A   Clear
8:52 AM 37.4 °F 29.3 °F 28.4 °F 70% 30.22 in 10.0 mi ESE 12.7 mph - N/A   Clear
9:52 AM 46.0 °F 40.2 °F 28.9 °F 51% 30.23 in 10.0 mi SSE 12.7 mph - N/A   Clear
10:52 AM 52.0 °F - 28.0 °F 40% 30.22 in 10.0 mi SSE 15.0 mph - N/A   Clear
11:52 AM 55.9 °F - 28.9 °F 36% 30.19 in 10.0 mi SE 17.3 mph 21.9 mph N/A   Clear
12:52 PM 59.0 °F - 28.0 °F 31% 30.17 in 10.0 mi SE 20.7 mph 25.3 mph N/A   Clear
1:52 PM 62.1 °F - 27.0 °F 26% 30.14 in 10.0 mi SSE 19.6 mph 25.3 mph N/A   Clear
2:52 PM 63.0 °F - 28.0 °F 27% 30.12 in 10.0 mi SSE 19.6 mph 26.5 mph N/A   Clear
3:52 PM 63.0 °F - 27.0 °F 26% 30.10 in 10.0 mi SSE 19.6 mph 26.5 mph N/A   Clear
4:52 PM 62.1 °F - 26.1 °F 25% 30.09 in 10.0 mi South 20.7 mph - N/A   Clear
5:52 PM 57.9 °F - 28.9 °F 33% 30.10 in 10.0 mi South 11.5 mph - N/A   Clear
6:52 PM 52.0 °F - 30.0 °F 43% 30.12 in 10.0 mi SSE 8.1 mph - N/A   Clear
7:52 PM 51.1 °F - 28.9 °F 43% 30.13 in 10.0 mi SSE 9.2 mph - N/A   Clear
8:52 PM 48.0 °F - 28.9 °F 48% 30.13 in 10.0 mi SE 6.9 mph - N/A   Clear
9:52 PM 48.0 °F - 28.9 °F 48% 30.14 in 10.0 mi SE 9.2 mph - N/A   Clear
10:52 PM 48.0 °F - 28.9 °F 48% 30.14 in 10.0 mi SE 11.5 mph - N/A   Clear
11:52 PM 46.9 °F - 28.9 °F 50% 30.15 in 10.0 mi SE 10.4 mph - N/A   Clear